Location: Asheville, NC
(35.6000°N, 82.5500°W)
Time: 17:07:05
(UTC-04:00)

Vanguard 2 Rocket - Pass Details

Date: 09 March 2018
Orbit: 553 x 3327 km, 32.9° (Epoch: 17 June)

Event Time Altitude Azimuth Distance (km) Brightness Sun altitude
Rises 19:23:41 0° 254° (WSW) 2,909 11.1 -11.2°
Reaches altitude 10° 19:25:37 10° 251° (WSW) 2,140 10.0 -11.6°
Maximum altitude 19:30:25 65° 170° (S) 989 7.0 -12.6°
Enters shadow 19:36:11 18° 92° (E) 2,684 8.6 -13.7°
Drops below altitude 10° 19:38:21 10° 90° (E) 3,480 - -14.2°
Sets 19:42:20 0° 88° (E) 4,925 - -15.0°
